User: anonymous   Login
Location: Caltech
(34.1382°N, 118.1253°W)
Time: 00:49:27
(UTC-07:00)
Language:

TMSAT-1 - Orbit

View from above orbital plane
View from above orbital plane
View from above satellite
View from above satellite

Ground track
Ground track

The orbit data is extracted from the following two-line orbital elements,

1 25396U 98043C   15245.89498978 +.00000035 +00000-0 +33615-4 0  9998
2 25396 098.4974 196.7825 0003826 076.0226 355.6610 14.24338285890944
Epoch (UTC): 02 September 2015 21:28:47
Eccentricity: 0.0003826
inclination: 98.4974°
perigee height: 808 km
apogee height: 813 km
right ascension of ascending node: 196.7825°
argument of perigee: 76.0226°
revolutions per day: 14.24338285
mean anomaly at epoch: 355.6610°
orbit number at epoch: 89094

The dashed part of the orbit path shows where the satellite is in the earth's shadow,  

DLR